This is the latest recevied weather packets stored in our database for station/object N9BSW. If no packets are shown the sender has not sent any weather packets the latest 10 day(s).
| Time | Temp. | Humidity | Pressure | Rain* | Wind** | Luminosity | Snow |
|---|---|---|---|---|---|---|---|
| 1777760115 | 13.33° C | 31% | 1017.8 hPa | 0 mm | - | 139 W/m² | - |
| 1777759813 | 12.78° C | 35% | 1017.8 hPa | 0 mm | - | 303 W/m² | - |
| 1777759508 | 13.33° C | 35% | 1018 hPa | 0 mm | - | 408 W/m² | - |
| 1777759205 | 13.33° C | 35% | 1017.9 hPa | 0 mm | - | 415 W/m² | - |
| 1777758903 | 12.78° C | 35% | 1017.9 hPa | 0 mm | - | 457 W/m² | - |
| 1777758599 | 12.78° C | 35% | 1017.8 hPa | 0 mm | - | 512 W/m² | - |
| 1777758296 | 13.33° C | 35% | 1017.6 hPa | 0 mm | - | 550 W/m² | - |
| 1777757994 | 13.89° C | 36% | 1017.6 hPa | 0 mm | - | 564 W/m² | - |
| 1777757690 | 13.33° C | 33% | 1017.8 hPa | 0 mm | - | 577 W/m² | - |
| 1777757389 | 13.33° C | 34% | 1017.9 hPa | 0 mm | - | 606 W/m² | - |
| 1777757087 | 12.78° C | 36% | 1017.9 hPa | 0 mm | - | 648 W/m² | - |
| 1777756784 | 12.78° C | 34% | 1017.7 hPa | 0 mm | - | 457 W/m² | - |
| 1777756480 | 13.33° C | 32% | 1017.7 hPa | 0 mm | - | 663 W/m² | - |
| 1777756177 | 12.22° C | 38% | 1017.6 hPa | 0 mm | - | 655 W/m² | - |
| 1777755874 | 11.67° C | 36% | 1017.7 hPa | 0 mm | - | 693 W/m² | - |
| 1777755571 | 11.67° C | 38% | 1017.6 hPa | 0 mm | - | 146 W/m² | - |
| 1777755267 | 11.67° C | 36% | 1017.7 hPa | 0 mm | - | 155 W/m² | - |
| 1777754965 | 11.67° C | 36% | 1017.6 hPa | 0 mm | - | 153 W/m² | - |
| 1777754662 | 12.22° C | 35% | 1017.7 hPa | 0 mm | - | 684 W/m² | - |
| 1777754360 | 11.67° C | 40% | 1017.7 hPa | 0 mm | - | 718 W/m² | - |
| 1777754057 | 11.11° C | 39% | 1017.7 hPa | 0 mm | - | 156 W/m² | - |
| 1777753752 | 11.67° C | 36% | 1017.7 hPa | 0 mm | - | 497 W/m² | - |
| 1777753450 | 11.67° C | 39% | 1017.8 hPa | 0 mm | - | 812 W/m² | - |
| 1777753148 | 12.22° C | 39% | 1017.7 hPa | 0 mm | - | 164 W/m² | - |
| 1777752843 | 11.67° C | 38% | 1018 hPa | 0 mm | - | 236 W/m² | - |
* Rain latest hour (hover to see other rain measurements)
** Current wind speed in m/s (hover to see current wind gust speed)